{"data":{"norad_id":55076,"epoch":"2026-05-25T03:08:37.911840Z","epoch_age_seconds":57489,"freshness":"FRESH","line1":"1 55076U 23001BV  26145.13099435  .00010307  00000+0  27753-3 0  9998","line2":"2 55076  97.3211 208.2323 0008966 180.7391 179.3842 15.37998877188562","mean_motion":15.37998877,"eccentricity":0.0008966,"inclination_deg":97.3211,"raan_deg":208.2323,"arg_perigee_deg":180.7391,"mean_anomaly_deg":179.3842,"bstar":0.00027753,"rev_number":18856,"period_min":93.62815679091,"perigee_km":445.90355746278,"apogee_km":458.15140841358,"semimajor_km":6830.1644829382,"source":"CELESTRAK","updated_at":"2026-05-25T13:37:58.814336Z"}}